Weather History for KTEB - November, 2013

Change the Weather History Date:

Tuesday, November 5, 2013

  Actual Average Record
Temperature  
Mean Temperature 46 °F -  
Max Temperature 55 °F 55 °F 73 °F (2005)
Min Temperature 37 °F 38 °F 26 °F (1998)
Degree Days  
Heating Degree Days 19    
Moisture  
Dew Point 34 °F    
Average Humidity 59    
Maximum Humidity 71    
Minimum Humidity 49    
Precipitation  
Precipitation 0.00 in - - ()
Sea Level Pressure  
Sea Level Pressure 30.59 in    
Wind  
Wind Speed 4 mph (ESE)    
Max Wind Speed 9 mph    
Max Gust Speed -    
Visibility 10 miles    
Events      
Averages and records for this station are not official NWS values.
T = Trace of Precipitation, MM = Missing Value Source: NWS Daily Summary

Daily Weather History Graph

Daily Weather History Graph

Search for Another Location

Airport or City:

Trip Planner

Search our weather history database for the weather conditions in past years. The results will help you decide how hot, cold, wet, or windy it might be!

Date:

Astronomy

Nov. 05, 2013 Rise Set
Actual Time 6:31 AM EST 4:47 PM EST
Civil Twilight 6:02 AM EST 5:16 PM EST
Nautical Twilight 5:30 AM EST 5:48 PM EST
Astronomical Twilight 4:58 AM EST 6:20 PM EST
Moon 8:44 AM EST (11/5) 6:45 PM EST (11/5)
Length of Visible Light 11h 13m
Length of Day
10h 15m
Waxing Crescent, 6% of the Moon is Illuminated
Nov 5
Waxing Crescent
Nov 10
First Quarter
Nov 17
Full
Nov 25
Last Quarter
Dec 2
New

Hourly Weather History & Observations

Time (EST) Temp. Windchill Dew Point Humidity Pressure Visibility Wind Dir Wind Speed Gust Speed Precip Events Conditions
12:51 AM 37.9 °F 35.5 °F 25.0 °F 60% 30.66 in 10.0 mi North 3.5 mph - N/A   Clear
1:51 AM 39.0 °F 35.7 °F 25.0 °F 57% 30.65 in 10.0 mi North 4.6 mph - N/A   Clear
2:51 AM 37.9 °F 35.5 °F 27.0 °F 65% 30.61 in 10.0 mi NNE 3.5 mph - N/A   Clear
3:51 AM 37.0 °F 33.3 °F 26.1 °F 65% 30.63 in 10.0 mi North 4.6 mph - N/A   Partly Cloudy
4:51 AM 37.0 °F 34.5 °F 26.1 °F 65% 30.64 in 10.0 mi North 3.5 mph - N/A   Mostly Cloudy
5:51 AM 37.0 °F 34.5 °F 26.1 °F 65% 30.64 in 10.0 mi North 3.5 mph - N/A   Clear
6:51 AM 37.9 °F 34.4 °F 28.0 °F 68% 30.65 in 10.0 mi North 4.6 mph - N/A   Clear
7:51 AM 43.0 °F 40.3 °F 30.0 °F 60% 30.65 in 10.0 mi NNE 4.6 mph - N/A   Clear
8:51 AM 46.9 °F - 32.0 °F 56% 30.64 in 10.0 mi Variable 3.5 mph - N/A   Clear
9:51 AM 51.1 °F - 34.0 °F 52% 30.64 in 10.0 mi East 3.5 mph - 0.00 in   Clear
10:51 AM 52.0 °F - 35.1 °F 53% 30.64 in 10.0 mi SE 6.9 mph - N/A   Scattered Clouds
11:51 AM 54.0 °F - 36.0 °F 51% 30.62 in 10.0 mi ESE 3.5 mph - N/A   Overcast
12:51 PM 55.0 °F - 37.0 °F 51% 30.59 in 10.0 mi Variable 3.5 mph - N/A   Overcast
1:51 PM 55.0 °F - 37.0 °F 51% 30.58 in 10.0 mi Variable 3.5 mph - N/A   Overcast
2:51 PM 55.9 °F - 37.0 °F 49% 30.56 in 10.0 mi SSE 5.8 mph - N/A   Overcast
3:51 PM 55.0 °F - 37.9 °F 53% 30.54 in 10.0 mi South 9.2 mph - 0.00 in   Partly Cloudy
4:51 PM 55.0 °F - 37.9 °F 53% 30.54 in 10.0 mi South 5.8 mph - N/A   Clear
5:51 PM 54.0 °F - 37.9 °F 55% 30.55 in 10.0 mi South 5.8 mph - N/A   Clear
6:51 PM 52.0 °F - 39.0 °F 61% 30.55 in 10.0 mi South 3.5 mph - N/A   Scattered Clouds
7:51 PM 52.0 °F - 39.0 °F 61% 30.56 in 10.0 mi South 3.5 mph - N/A   Clear
8:51 PM 51.1 °F - 39.0 °F 63% 30.53 in 10.0 mi South 3.5 mph - N/A   Clear
9:51 PM 50.0 °F - 39.9 °F 68% 30.53 in 10.0 mi SSW 4.6 mph - N/A   Clear
10:51 PM 51.1 °F - 41.0 °F 68% 30.50 in 10.0 mi Calm Calm - N/A   Clear
11:51 PM 50.0 °F - 41.0 °F 71% 30.46 in 10.0 mi East 3.5 mph - N/A   Clear